Location: Peebles
(55.6412°N, 3.1714°W)
Time: 22:25:27
(UTC+00:00)

deb Agena D - Pass Details

Date: 24 September 2023
Orbit: 794 x 979 km, 99.8° (Epoch: 28 November)

Event Time Altitude Azimuth Distance (km) Brightness Sun altitude
Rises 23:25:48 0° 26° (NNE) 3,696 10.0 -31.5°
Reaches altitude 10° 23:29:39 10° 50° (NE) 2,737 8.9 -31.7°
Enters shadow 23:30:58 13° 62° (ENE) 2,527 8.6 -31.8°
